Weather reports worldwide

Advertisment
Bradford, United Kingdom (99171): temperature & dewpoint: 09.10.2019 19:00:00 - 15.10.2019 19:00:00 (BST)Bradford, United Kingdom (99171): temperature -20cm & temperature -100cm: 09.10.2019 19:00:00 - 15.10.2019 19:00:00 (BST)Bradford, United Kingdom (99171): precipitation: 09.10.2019 19:00:00 - 15.10.2019 19:00:00 (BST)
Date & Time tt [°C] td [°C] tt -20cm [°C] tt -100cm [°C] rr [mm]
15.10.2019 19:00:00 - - - - -
15.10.2019 18:00:00 10,4 7,6 - - 0,0
15.10.2019 17:00:00 10,6 7,5 - - 0,0
15.10.2019 16:00:00 10,8 8,0 - - 0,0
15.10.2019 15:00:00 11,0 8,5 - - 0,0
15.10.2019 14:00:00 12,0 9,0 - - 0,0
15.10.2019 13:00:00 12,1 9,1 - - 0,0
15.10.2019 12:00:00 11,8 8,5 - - 0,0
15.10.2019 11:00:00 11,2 8,1 - - 0,0
15.10.2019 10:00:00 10,7 8,2 12,5 13,4 0,0
15.10.2019 09:00:00 9,2 8,8 - - 0,0
15.10.2019 08:00:00 8,4 7,6 - - 0,0
15.10.2019 07:00:00 9,0 8,0 - - 0,0
15.10.2019 06:00:00 9,1 8,2 - - 0,0
15.10.2019 05:00:00 9,0 8,3 - - 0,0
15.10.2019 04:00:00 8,9 8,4 - - 0,2
15.10.2019 03:00:00 8,9 8,5 - - 0,2
15.10.2019 02:00:00 8,7 8,3 - - 0,6
15.10.2019 01:00:00 8,7 8,3 - - 1,0
15.10.2019 00:00:00 8,9 8,5 - - 2,0
14.10.2019 23:00:00 9,0 8,4 - - 0,4
14.10.2019 22:00:00 8,9 8,3 - - 0,4
14.10.2019 21:00:00 9,0 8,3 - - 0,2
14.10.2019 20:00:00 9,4 8,7 - - 0,2
14.10.2019 19:00:00 10,2 9,5 - - 1,2
14.10.2019 18:00:00 10,4 9,7 - - 1,6
14.10.2019 17:00:00 10,8 9,6 - - 1,0
14.10.2019 16:00:00 11,4 9,5 - - 0,0
14.10.2019 15:00:00 11,4 9,8 - - 0,0
14.10.2019 14:00:00 10,8 9,2 - - 0,0
14.10.2019 13:00:00 10,1 8,7 - - 0,0
14.10.2019 12:00:00 11,0 8,5 - - 0,0
14.10.2019 11:00:00 9,0 8,4 - - 0,0
14.10.2019 10:00:00 8,4 8,3 12,7 13,5 0,0
14.10.2019 09:00:00 7,2 7,0 - - 0,0
14.10.2019 08:00:00 6,8 6,5 - - 0,0
14.10.2019 07:00:00 7,3 6,8 - - 0,0
14.10.2019 06:00:00 7,1 6,6 - - 0,0
14.10.2019 05:00:00 8,0 7,1 - - 0,0
14.10.2019 04:00:00 7,9 7,1 - - 0,0
14.10.2019 03:00:00 7,8 6,7 - - 0,0
14.10.2019 02:00:00 8,3 6,9 - - 0,0
14.10.2019 01:00:00 8,9 7,2 - - 0,0
14.10.2019 00:00:00 8,4 6,9 - - 0,0
13.10.2019 23:00:00 9,4 7,6 - - 0,0
13.10.2019 22:00:00 9,8 7,8 - - 0,0
13.10.2019 21:00:00 10,2 7,9 - - 0,0
13.10.2019 20:00:00 10,2 8,2 - - 0,0
13.10.2019 19:00:00 10,7 10,0 - - 1,0
13.10.2019 18:00:00 10,7 10,2 - - 1,0
13.10.2019 17:00:00 10,8 10,2 - - 0,6
13.10.2019 16:00:00 10,8 9,9 - - 1,2
13.10.2019 15:00:00 10,9 9,7 - - 0,2
13.10.2019 14:00:00 11,0 9,9 - - 0,0
13.10.2019 13:00:00 10,6 9,6 - - 0,2
13.10.2019 12:00:00 10,4 9,5 - - 0,0
13.10.2019 11:00:00 10,3 9,6 - - 0,6
13.10.2019 10:00:00 10,3 9,6 12,7 13,5 1,0
13.10.2019 09:00:00 10,4 9,8 - - 0,2
13.10.2019 08:00:00 10,5 9,7 - - 0,0
13.10.2019 07:00:00 10,3 9,8 - - 0,0
13.10.2019 06:00:00 10,1 9,8 - - 0,0
13.10.2019 05:00:00 9,5 9,1 - - 0,0
13.10.2019 04:00:00 8,9 8,4 - - 0,0
13.10.2019 03:00:00 9,1 8,4 - - 0,0
13.10.2019 02:00:00 9,5 8,6 - - 0,0
13.10.2019 01:00:00 9,2 8,6 - - 0,0
13.10.2019 00:00:00 9,7 8,6 - - 0,0
12.10.2019 23:00:00 10,3 8,6 - - 0,0
12.10.2019 22:00:00 9,9 7,6 - - 0,0
12.10.2019 21:00:00 10,5 7,9 - - 0,0
12.10.2019 20:00:00 10,5 7,5 - - 0,0
12.10.2019 19:00:00 11,2 7,4 - - 0,0
12.10.2019 18:00:00 12,4 8,3 - - 0,0
12.10.2019 17:00:00 12,9 8,3 - - 0,0
12.10.2019 16:00:00 13,1 7,5 - - 0,0
12.10.2019 15:00:00 13,2 7,7 - - 0,0
12.10.2019 14:00:00 13,6 7,8 - - 0,0
12.10.2019 13:00:00 12,7 7,5 - - 0,0
12.10.2019 12:00:00 13,5 8,4 - - 0,0
12.10.2019 11:00:00 11,1 8,2 - - 0,0
12.10.2019 10:00:00 9,7 7,7 12,9 13,7 0,0
12.10.2019 09:00:00 9,4 7,8 - - 0,0
12.10.2019 08:00:00 8,8 7,5 - - 0,0
12.10.2019 07:00:00 8,8 7,5 - - 0,0
12.10.2019 06:00:00 8,7 7,2 - - 0,0
12.10.2019 05:00:00 9,5 7,7 - - 0,0
12.10.2019 04:00:00 9,5 7,5 - - 0,0
12.10.2019 03:00:00 9,6 7,9 - - 0,0
12.10.2019 02:00:00 9,5 7,4 - - 0,0
12.10.2019 01:00:00 10,1 7,0 - - 0,0
12.10.2019 00:00:00 10,2 7,8 - - 0,0
11.10.2019 23:00:00 10,6 7,8 - - 0,0
11.10.2019 22:00:00 10,9 8,3 - - 0,0
11.10.2019 21:00:00 10,4 8,0 - - 0,2
11.10.2019 20:00:00 11,6 8,3 - - 0,0
11.10.2019 19:00:00 11,7 8,1 - - 0,0
11.10.2019 18:00:00 12,1 7,8 - - 0,0
11.10.2019 17:00:00 12,6 7,6 - - 0,0
11.10.2019 16:00:00 13,5 6,5 - - 0,0
11.10.2019 15:00:00 13,7 9,1 - - 0,0
11.10.2019 14:00:00 13,4 8,6 - - 0,0
11.10.2019 13:00:00 12,8 9,3 - - 0,0
11.10.2019 12:00:00 11,7 9,6 - - 0,2
11.10.2019 11:00:00 12,7 11,1 - - 0,2
11.10.2019 10:00:00 12,5 11,0 12,7 13,7 0,8
11.10.2019 09:00:00 12,6 11,1 - - 0,8
11.10.2019 08:00:00 12,0 10,8 - - 0,8
11.10.2019 07:00:00 12,1 10,9 - - 3,0
11.10.2019 06:00:00 12,5 10,8 - - 0,2
11.10.2019 05:00:00 12,5 10,3 - - 0,0
11.10.2019 04:00:00 12,9 10,2 - - 0,0
11.10.2019 03:00:00 12,7 10,5 - - 0,0
11.10.2019 02:00:00 12,7 10,4 - - 0,0
11.10.2019 01:00:00 12,7 10,1 - - 0,0
11.10.2019 00:00:00 13,4 10,5 - - 0,0
10.10.2019 23:00:00 13,7 11,0 - - 0,4
10.10.2019 22:00:00 13,7 12,2 - - 1,4
10.10.2019 21:00:00 12,9 11,6 - - 1,0
10.10.2019 20:00:00 12,9 11,2 - - 0,2
10.10.2019 19:00:00 13,1 10,5 - - 0,0
10.10.2019 18:00:00 13,1 10,7 - - 0,0
10.10.2019 17:00:00 12,6 10,7 - - 0,0
10.10.2019 16:00:00 11,7 10,0 - - 0,2
10.10.2019 15:00:00 11,8 9,1 - - 0,0
10.10.2019 14:00:00 12,9 8,5 - - 0,0
10.10.2019 13:00:00 12,4 9,2 - - 0,4
10.10.2019 12:00:00 11,8 8,9 - - 0,2
10.10.2019 11:00:00 12,1 7,3 - - 0,0
10.10.2019 10:00:00 11,1 7,4 12,7 13,7 0,0
10.10.2019 09:00:00 10,5 7,2 - - 0,0
10.10.2019 08:00:00 9,8 6,8 - - 0,0
10.10.2019 07:00:00 9,7 7,2 - - 0,0
10.10.2019 06:00:00 9,6 7,2 - - 0,0
10.10.2019 05:00:00 9,5 7,2 - - 0,4
10.10.2019 04:00:00 9,6 7,2 - - 0,0
10.10.2019 03:00:00 9,5 7,3 - - 0,0
10.10.2019 02:00:00 9,6 7,7 - - 0,0
10.10.2019 01:00:00 9,6 7,7 - - 0,4
10.10.2019 00:00:00 8,7 7,4 - - 0,2
09.10.2019 23:00:00 8,4 7,1 - - 0,0
09.10.2019 22:00:00 8,5 7,0 - - 2,2
09.10.2019 21:00:00 8,6 6,4 - - 3,6
09.10.2019 20:00:00 9,3 7,9 - - 1,0
09.10.2019 19:00:00 9,8 7,5 - - 0,6

tt = temperature
td = dewpoint
tt -20cm = temperature -20cm
tt -100cm = temperature -100cm
rr = precipitation

Next stations